Location: *
(48.3667°N, 10.9000°E)
Time: 14:20:56
(UTC+00:00)

Daily predictions for brighter satellites

Satellite Brightness Start Highest point End
(mag) Time Altitude Azimuth Time Altitude Azimuth Time Altitude Azimuth
Cosmos 1553 Rocket 4.0 18:06:23 10° S 18:12:27 87° E 18:18:36 10° N
Cosmos 2219 Rocket 3.7 18:07:18 10° SW 18:12:40 42° NW 18:18:02 10° NNE
STARLINK-1237 3.9 18:10:49 10° SW 18:14:43 47° SE 18:18:38 10° ENE
STARLINK-1084 4.2 18:10:42 10° WNW 18:14:45 50° NNE 18:18:49 10° E
STARLINK-1083 3.7 18:10:59 10° WNW 18:15:04 80° SSW 18:19:09 10° ESE
KORONAS-FOTON 3.9 18:13:11 10° NNW 18:17:02 80° W 18:20:50 10° S
STARLINK-1209 2.7 18:14:32 10° WSW 18:17:29 88° NW 18:20:25 10° ENE
Cosmos 1943 Rocket 3.1 18:12:49 10° NNW 18:17:43 31° NE 18:22:36 10° ESE
Cosmos 1939 Rocket 4.2 18:14:01 10° S 18:17:49 44° W 18:21:36 10° NNW
ATLAS 2AS CENTAUR R/B 4.2 18:12:37 10° NW 18:19:20 29° NNE 18:25:41 10° ENE
STARLINK-1202 3.8 18:15:29 10° SW 18:19:26 51° SE 18:23:23 10° ENE
STARLINK-1228 2.7 18:16:45 10° WSW 18:19:38 85° NNW 18:22:32 10° ENE
STARLINK-1125 3.7 18:15:34 10° WNW 18:19:39 75° SSW 18:23:42 10° SE
STARLINK-1098 4.1 18:15:42 10° WNW 18:19:46 52° NNE 18:23:50 10° E
SL-14 R/B 3.6 18:17:10 10° N 18:21:07 46° ENE 18:25:00 10° SSE
Cosmos 1980 4.0 18:18:11 10° SSW 18:23:52 77° WNW 18:29:35 10° NNE
STARLINK-1109 3.8 18:20:19 10° WNW 18:24:23 71° SSW 18:28:27 10° SE
SL-8 R/B 3.7 18:19:48 10° W 18:24:36 88° N 18:29:23 10° E
STARLINK-1123 4.1 18:20:41 10° WNW 18:24:45 54° NNE 18:28:50 10° E
ERBS 3.6 18:23:04 10° W 18:26:18 41° NNW 18:29:32 10° NE
STARLINK-1246 3.7 18:22:28 10° SW 18:26:29 57° SSE 18:30:31 10° ENE
Cosmos 2315 Rocket 4.3 18:22:46 10° SSE 18:28:43 46° E 18:34:43 10° NNE
Cosmos 1766 3.4 18:25:02 10° S 18:29:01 84° W 18:33:01 10° N
STARLINK-1091 3.8 18:25:08 10° WNW 18:29:12 67° SSW 18:33:14 10° SE
STARLINK-1097 4.0 18:25:39 10° WNW 18:29:45 56° NNE 18:33:37 11° E
ADEOS Rocket 3.6 18:24:13 10° N 18:31:05 69° WNW 18:37:10 10° SSW
USA 234 3.8 18:25:25 10° ENE 18:31:24 37° SE 18:37:20 10° SSW
STARLINK-1066 4.2 18:28:31 10° WNW 18:31:27 36° SW 18:34:23 10° SSE
STARLINK-67 3.1 18:29:18 10° W 18:31:50 50° NNW 18:34:22 10° ENE
STARLINK-1081 4.2 18:29:00 10° WNW 18:31:54 35° SW 18:34:47 10° SSE
STARLINK-1201 2.9 18:29:00 10° WSW 18:32:15 88° SSE 18:35:33 10° ENE
STARLINK-1070 4.2 18:29:28 10° WNW 18:32:20 35° SW 18:35:13 10° SSE
STARLINK-1069 4.2 18:29:53 10° WNW 18:32:48 35° SW 18:35:42 10° SSE
STARLINK-1085 4.2 18:30:20 10° WNW 18:33:15 35° SW 18:36:09 10° SSE
Cosmos 1626 2.1 18:29:58 10° N 18:33:39 59° ENE 18:37:18 10° SSE
STARLINK-1224 3.6 18:29:40 10° SW 18:33:41 63° SSE 18:37:43 10° ENE
STARLINK-1086 4.2 18:30:50 10° WNW 18:33:42 34° SW 18:36:33 10° SSE
Meteor 2-8 Rocket 4.4 18:27:38 10° S 18:33:45 73° E 18:39:52 10° NNE
STARLINK-1095 4.2 18:31:17 10° WNW 18:34:09 34° SW 18:37:00 10° SSE
STARLINK-1077 4.2 18:31:44 10° WNW 18:34:36 33° SW 18:37:27 10° SSE
STARLINK-1099 4.0 18:30:39 10° WNW 18:34:45 58° NNE 18:38:25 13° E
STARLINK-1075 4.3 18:32:11 10° WNW 18:35:03 33° SW 18:37:53 10° SSE
STARLINK-1203 3.5 18:31:21 10° SW 18:35:19 68° SSE 18:39:16 10° ENE
H-2A R/B 2.1 18:30:07 10° SSE 18:35:25 74° ENE 18:40:35 10° N
STARLINK-1093 4.3 18:32:35 10° WNW 18:35:29 33° SW 18:38:22 10° SSE
STARLINK-1074 4.3 18:33:03 10° WNW 18:35:56 33° SW 18:38:49 10° SSE
STARLINK-1087 4.3 18:33:32 10° WNW 18:36:23 32° SW 18:39:13 10° SSE
HJ-1C 4.3 18:33:16 10° S 18:36:32 52° W 18:39:51 10° NNW
STARLINK-1088 4.3 18:34:00 10° WNW 18:36:50 32° SW 18:39:40 10° SSE
STARLINK-1115 4.3 18:34:25 10° WNW 18:37:17 32° SW 18:40:09 10° SSE
STARLINK-1076 4.3 18:34:52 10° WNW 18:37:44 32° SW 18:40:35 10° SSE
SL-16 R/B 2.3 18:32:19 10° S 18:37:48 54° ESE 18:43:18 10° NE
STARLINK-1092 4.4 18:35:19 10° WNW 18:38:11 32° SW 18:41:02 10° SSE
STARLINK-1225 3.6 18:34:17 10° SW 18:38:19 67° SSE 18:42:22 10° ENE
STARLINK-1080 4.4 18:35:48 10° WNW 18:38:38 31° SW 18:41:26 10° SSE
STARLINK-1090 4.4 18:36:16 10° WNW 18:39:05 31° SW 18:41:53 10° SSE
STARLINK-1072 4.0 18:35:28 10° WNW 18:39:26 56° SSW 18:43:08 11° SE
STARLINK-1089 4.4 18:36:43 10° WNW 18:39:31 31° SW 18:42:18 10° SSE
STARLINK-1104 3.9 18:35:38 10° WNW 18:39:44 60° NNE 18:43:12 14° E
STARLINK-1107 4.4 18:37:11 10° WNW 18:40:00 30° SW 18:42:46 10° SSE
SL-08 RB Rocket 4.0 18:35:43 10° SE 18:40:03 48° ENE 18:44:28 10° N
Cosmos 2333 Rocket 4.4 18:35:32 10° WSW 18:40:24 28° NW 18:45:17 10° NNE
TSX-5 4.4 18:35:02 10° NNW 18:40:37 64° NE 18:44:38 11° SE
Resurs 01 Rocket 2.8 18:38:54 13° ESE 18:41:54 25° ENE 18:45:28 10° N
STARLINK-1230 3.5 18:39:00 10° SW 18:43:03 71° SSE 18:47:07 10° ENE
STARLINK-1096 4.1 18:39:50 10° WNW 18:43:47 53° SW 18:47:19 12° SE
STARLINK-1144 3.8 18:40:37 10° WNW 18:44:45 63° NNE 18:47:59 16° E
STARLINK-1233 3.0 18:42:34 10° WSW 18:45:41 73° NNW 18:48:51 10° ENE
FREGAT/IRIS 2.3 18:43:23 10° SSE 18:46:05 89° WSW 18:48:50 10° NNW
STARLINK-1212 3.0 18:43:02 10° WSW 18:46:09 72° NNW 18:49:17 10° ENE
STARLINK-1105 3.1 18:43:27 10° WSW 18:46:35 72° NNW 18:49:44 10° ENE
STARLINK-1206 3.1 18:43:58 10° WSW 18:47:04 71° NNW 18:50:09 10° ENE
STARLINK-1247 3.1 18:44:24 10° WSW 18:47:30 71° NNW 18:50:34 10° ENE
Cosmos 1302 Rocket 4.0 18:42:12 10° NNW 18:47:31 80° ENE 18:52:48 10° SSE
STARLINK-1243 3.5 18:43:48 10° SW 18:47:52 76° SSE 18:51:57 10° ENE
STARLINK-1227 3.1 18:44:49 10° WSW 18:47:57 71° NNW 18:51:02 10° ENE
STARLINK-1218 3.1 18:45:18 10° WSW 18:48:24 70° NNW 18:51:26 11° ENE
Abrixas rocket 3.6 18:46:36 10° SSW 18:48:42 18° SSE 18:49:07 17° SE
STARLINK-1079 4.2 18:44:54 10° WNW 18:48:48 49° SW 18:52:10 13° SE
STARLINK-1226 3.1 18:45:45 10° WSW 18:48:51 70° NNW 18:51:53 11° ENE
STARLINK-1254 3.1 18:46:11 10° WSW 18:49:18 69° NNW 18:52:20 11° ENE
STARLINK-1103 3.8 18:45:35 10° WNW 18:49:43 65° NNE 18:52:45 18° E
STARLINK-1215 3.1 18:46:40 10° WSW 18:49:46 69° NNW 18:52:44 11° ENE
STARLINK-1231 3.1 18:47:06 10° WSW 18:50:12 68° NNW 18:53:10 11° ENE
SeaSat 1 4.2 18:45:52 10° NNE 18:50:19 35° NW 18:54:46 10° WSW
Cosmos 1709 Rocket 4.0 18:44:16 10° N 18:50:32 84° E 18:56:40 10° S
Cosmos 1953 3.3 18:47:33 10° SE 18:50:47 26° E 18:54:06 10° NNE
STARLINK-1232 3.1 18:48:01 10° WSW 18:51:07 68° NNW 18:54:02 11° ENE
STARLINK-1217 3.1 18:48:28 10° WSW 18:51:35 67° NNW 18:54:28 12° ENE
STARLINK-1208 3.2 18:48:53 10° WSW 18:52:00 67° NNW 18:54:56 12° ENE
STARLINK-1229 3.2 18:49:22 10° WSW 18:52:28 66° NNW 18:55:20 12° ENE
STARLINK-1236 3.5 18:48:34 10° WSW 18:52:38 81° SSE 18:56:44 10° ENE
STARLINK-1271 3.2 18:49:49 10° WSW 18:52:55 66° NNW 18:55:46 12° ENE
STARLINK-1116 4.3 18:49:20 10° WNW 18:53:13 46° SW 18:56:26 14° SE
STARLINK-1270 3.2 18:50:17 10° WSW 18:53:23 66° NNW 18:56:13 12° ENE
STARLINK-1154 3.2 18:50:44 10° WSW 18:53:49 65° NNW 18:56:38 12° ENE
MONITOR-E 4.0 18:51:59 10° S 18:54:36 71° WSW 18:57:16 10° NNW
Cosmos 1269 Rocket 4.0 18:49:23 10° SSW 18:54:39 88° ESE 19:00:01 10° NNE
STARLINK-1101 3.7 18:50:34 10° WNW 18:54:43 68° NNE 18:57:32 19° ESE
STARLINK-1197 3.2 18:51:38 10° WSW 18:54:45 64° NNW 18:57:31 12° ENE
STARLINK-1189 3.2 18:52:05 10° WSW 18:55:11 64° NNW 18:57:57 13° ENE
STARLINK-1187 3.4 18:52:58 10° WSW 18:56:03 59° NNW 18:58:50 12° ENE
STARLINK-1188 3.2 18:53:00 10° WSW 18:56:06 63° NNW 18:58:49 13° ENE
STARLINK-1198 3.2 18:53:01 10° WSW 18:56:06 63° NNW 18:58:49 13° ENE
STARLINK-1235 3.5 18:53:40 10° W 18:56:46 54° NNW 18:59:33 12° ENE
SL-24 R/B 4.5 18:52:41 10° NNE 18:57:03 40° E 19:00:53 10° SSE
CZ-4C R/B 4.4 18:52:36 10° WNW 18:57:13 24° NNW 19:02:32 10° NE
STARLINK-1199 3.3 18:54:56 10° WSW 18:58:03 62° NNW 19:00:44 13° ENE
STARLINK-1191 3.3 18:55:23 10° WSW 18:58:30 62° NNW 19:01:10 13° ENE
STARLINK-1210 3.3 18:55:50 10° WSW 18:58:57 61° NNW 19:01:36 14° ENE
STARLINK-1221 3.3 18:56:17 10° WSW 18:59:24 61° NNW 19:02:02 14° ENE
STARLINK-1102 3.7 18:55:32 10° WNW 18:59:41 72° NNE 19:02:19 22° ESE
STARLINK-1219 3.3 18:56:45 10° WSW 18:59:52 61° NNW 19:02:29 14° ENE
STARLINK-1222 3.3 18:57:12 10° WSW 19:00:19 60° NNW 19:02:54 14° ENE
STARLINK-1211 3.3 18:57:39 10° WSW 19:00:46 60° NNW 19:03:20 14° ENE
ISS -3.5 18:57:29 10° WNW 19:00:50 62° NNE 19:02:41 24° E
STARLINK-1214 3.4 18:58:07 10° WSW 19:01:12 59° NNW 19:03:46 14° ENE
STARLINK-1245 3.3 18:58:35 10° WSW 19:01:40 59° NNW 19:04:10 14° ENE
Cosmos 2297 4.1 18:56:19 10° NNW 19:01:57 67° WSW 19:07:35 10° SSE
STARLINK-1238 3.4 18:58:58 10° WSW 19:02:05 59° NNW 19:04:37 14° ENE
Cosmos 1455 Rocket 3.8 18:58:05 10° SSW 19:02:20 57° WNW 19:06:40 10° N
Cosmos 2251 Rocket 4.2 18:57:38 10° SSE 19:02:21 33° E 19:07:07 10° NE
STARLINK-1269 3.5 18:58:23 10° WSW 19:02:29 90° ENE 19:06:12 12° ENE
STARLINK-1205 3.4 18:59:54 10° W 19:02:59 58° NNW 19:05:27 15° ENE
BREEZE-M DEB (TANK) 3.9 18:55:23 10° W 19:03:19 79° N 19:05:20 22° E
Cosmos 2074 Rocket 4.3 18:57:21 10° N 19:03:21 45° ENE 19:08:16 15° SE
STARLINK-1204 3.4 19:00:23 10° W 19:03:28 58° NNW 19:05:53 15° ENE
Cosmos 2084 Rocket 3.7 18:59:52 10° NW 19:04:18 58° NE 19:06:58 23° ESE
STARLINK-1111 3.6 19:00:32 10° WNW 19:04:41 75° NNE 19:07:06 24° ESE
STARLINK-1200 3.6 19:03:12 10° WSW 19:07:17 86° NNW 19:10:49 14° ENE
Cosmos 2237 Rocket 3.6 19:02:11 10° WSW 19:07:29 42° NW 19:12:50 10° NNE
CZ-2C R/B 3.0 19:03:53 10° NNE 19:08:42 37° E 19:13:28 10° SSE
Cosmos 1626 Rocket 3.6 19:04:58 10° NNW 19:09:24 82° W 19:13:46 10° S
STARLINK-1073 3.6 19:05:31 10° WNW 19:09:41 79° NNE 19:11:53 27° ESE
STARLINK-1192 3.6 19:07:57 10° WSW 19:12:03 82° NNW 19:15:24 15° ENE
STARLINK-1121 3.6 19:10:29 10° WNW 19:14:39 83° NNE 19:16:39 29° ESE
Cosmos 292 Rocket 3.8 19:11:02 10° NNW 19:15:48 61° ENE 19:18:32 25° SE
ARGOS 3.6 19:10:31 10° S 19:15:52 63° WSW 19:21:15 10° NNW
STARLINK-1244 3.7 19:12:53 10° WSW 19:16:58 78° NNW 19:20:07 16° ENE
Cosmos 1602 Rocket 3.6 19:12:55 10° N 19:17:25 86° W 19:21:45 11° S
IRIDIUM 104 4.3 19:13:33 10° N 19:18:48 70° E 19:23:42 12° SSE
STARLINK-1106 3.5 19:15:26 10° WNW 19:19:36 88° NNE 19:21:25 33° ESE
STARLINK-1138 3.7 19:17:29 10° WSW 19:21:35 74° NNW 19:24:34 18° ENE
STARLINK-1234 3.9 19:19:46 10° W 19:22:37 39° NNW 19:24:04 22° NE
MOS 1 Rocket 3.7 19:18:00 10° NNE 19:23:06 53° E 19:28:23 10° S
USA 186 3.7 19:20:08 10° SSW 19:23:14 31° W 19:26:19 10° NNW
STARLINK-1112 3.5 19:20:27 10° WNW 19:24:37 88° SSW 19:26:14 36° ESE
STARLINK-1143 3.8 19:22:23 10° WSW 19:26:29 71° NNW 19:29:16 20° ENE
MetOp-A 4.1 19:21:25 11° SSE 19:26:30 87° WSW 19:31:54 10° NNW
IRIDIUM 114 4.2 19:22:42 10° N 19:27:58 83° E 19:32:51 12° S
CZ-2C R/B 4.0 19:23:34 10° S 19:28:22 44° W 19:33:01 10° NNW
COSMOS 2455 4.4 19:24:06 10° NNW 19:28:48 23° NNE 19:32:01 15° ENE
STARLINK-1128 3.5 19:25:26 10° WNW 19:29:35 83° SSW 19:31:01 40° SE
Cosmos 1437 3.1 19:28:49 10° N 19:31:24 42° NE 19:31:24 42° NE
Cosmos 1470 3.5 19:28:09 10° SSW 19:31:56 53° WNW 19:35:47 10° N
Cosmos 1726 Rocket 4.3 19:33:41 32° E 19:33:41 32° E 19:37:23 10° NNE
STARLINK-1113 3.6 19:30:25 10° WNW 19:34:34 79° SSW 19:35:47 44° SE
STARLINK-1241 3.9 19:30:47 10° WSW 19:34:49 65° NNW 19:37:13 23° ENE
SPOT 3 Rocket 3.9 19:29:48 10° S 19:35:00 68° WSW 19:40:13 10° NNW
Cosmos 1825 Rocket 3.6 19:32:06 10° N 19:36:30 61° ENE 19:37:53 39° SE
IRIDIUM 103 4.3 19:31:53 10° N 19:37:09 83° W 19:42:00 12° S
NOSS 3-4 (A) 4.4 19:32:25 10° NW 19:38:53 44° NE 19:42:42 25° E
NOSS 3-4 (C) 4.4 19:32:31 10° NW 19:38:58 44° NE 19:42:48 25° E
STARLINK-1119 3.6 19:35:23 10° WNW 19:39:32 74° SSW 19:40:34 48° SE
STARLINK-1239 3.9 19:35:44 10° W 19:39:45 62° NNW 19:41:56 25° NE
Cosmos 2369 Rocket 2.1 19:34:41 10° NNW 19:40:26 84° ENE 19:43:14 32° SSE
Cosmos 1726 2.0 19:42:56 54° SSE 19:43:37 69° E 19:47:21 10° NNE
STARLINK-1240 4.0 19:40:29 10° W 19:44:29 60° NNW 19:46:28 28° NE
STARLINK-1114 3.7 19:40:25 10° WNW 19:44:32 69° SSW 19:45:24 52° SSE
Aureole 2 Rocket 2.4 19:41:55 10° NNW 19:45:27 77° WSW 19:45:56 62° S
Cosmos 1758 Rocket 3.4 19:41:53 10° N 19:46:17 89° E 19:47:54 38° S
Cosmos 2263 4.1 19:40:50 10° NNW 19:46:29 71° ENE 19:48:35 39° SE
Cosmos 1908 4.4 19:48:57 29° NE 19:48:57 29° NE 19:51:16 10° NNE
SAR-Lupe-2 4.4 19:45:03 10° NNE 19:47:27 36° NE 19:47:27 36° NE
CZ-2C R/B 4.3 19:44:02 10° N 19:48:45 60° WNW 19:53:22 10° SSW
NOSS 3-3 (A) 3.9 19:43:28 10° SSW 19:49:08 54° ESE 19:55:31 10° NE
NOSS 3-3 (C) 3.9 19:43:35 10° SSW 19:49:14 53° ESE 19:55:37 10° NE
STARLINK-1216 4.1 19:45:15 10° W 19:49:15 57° NNW 19:51:03 30° NE
STARLINK-1130 (DARKSAT) 3.7 19:45:23 10° WNW 19:49:30 65° SSW 19:50:10 54° SSE
Meteor 2-17 Rocket 4.5 19:45:19 10° N 19:51:24 61° ENE 19:53:46 37° SE
STARLINK-1209 4.2 19:49:58 10° WNW 19:52:41 32° N 19:52:50 32° N
Cosmos 1953 Rocket 3.6 19:48:22 10° N 19:52:47 61° ENE 19:53:22 55° ESE
Terra 3.3 19:53:53 21° ENE 19:53:53 21° ENE 19:57:19 10° NNE
STARLINK-1237 4.1 19:50:03 10° W 19:54:03 55° NNW 19:55:38 32° NE
STARLINK-1084 3.7 19:50:21 10° WNW 19:54:27 60° SSW 19:54:56 55° S
STARLINK-1228 4.2 19:52:12 10° WNW 19:54:50 32° N 19:54:50 32° N
Cosmos 2184 Rocket 4.0 19:49:01 10° N 19:55:23 83° W 19:59:37 22° S
Spot 2 Rocket 3.5 19:55:41 46° SE 19:57:03 66° ENE 20:02:09 10° N
STARLINK-1202 4.2 19:54:48 10° W 19:58:48 53° NNW 20:00:11 35° NE
STARLINK-1098 3.8 19:55:22 10° WNW 19:59:26 56° SSW 19:59:43 54° SSW
Cosmos 1606 Rocket 3.4 19:59:07 59° SSE 19:59:49 73° E 20:04:16 10° NNE
SPOT 1/Viking Rocket 3.8 20:00:50 45° E 20:01:34 49° ENE 20:06:36 10° N
Cosmos 1943 Rocket 2.7 19:56:21 10° NW 20:01:44 53° WSW 20:04:35 27° S
Cosmos 1943 3.1 20:01:04 25° S 20:04:18 59° ESE 20:09:53 10° NE
STARLINK-1123 3.9 20:00:21 10° WNW 20:04:23 52° SW 20:04:30 52° SSW
STARLINK-1246 4.3 20:02:02 10° W 20:06:03 51° NNW 20:07:11 38° NE
Meteor 2-10 4.2 20:00:59 10° SSW 20:06:19 79° WNW 20:11:55 10° N
SL-8 R/B 3.6 20:02:22 10° W 20:07:09 72° SSW 20:07:34 66° SSE
STARLINK-1201 4.3 20:05:41 10° WNW 20:08:41 36° N 20:08:41 36° N
STARLINK-1097 4.1 20:05:20 10° WNW 20:09:16 48° SW 20:09:16 48° SW
ATLAS 2AS CENTAUR R/B 3.0 20:04:11 10° NW 20:11:52 63° NE 20:14:22 42° ESE
STARLINK-1224 4.3 20:09:13 10° W 20:13:10 49° NNW 20:13:58 42° NNE
STARLINK-1099 4.3 20:10:20 10° WNW 20:14:04 44° SW 20:14:04 44° SW
STARLINK-1203 4.3 20:10:38 10° W 20:14:29 47° N 20:15:06 42° NNE
USA 234 3.3 20:08:14 10° NE 20:14:48 82° NNW 20:21:21 10° WSW
USA 245 4.0 20:15:17 60° SSE 20:16:17 86° ENE 20:22:11 10° NNW
Cosmos 2154 Rocket 4.0 20:10:06 10° N 20:16:30 88° W 20:19:00 40° S
STARLINK-1225 4.4 20:13:50 10° W 20:17:47 48° N 20:18:23 44° NNE
Resurs 01 Rocket 2.7 20:16:28 28° SSW 20:18:11 41° W 20:22:23 10° NNW
STARLINK-1104 4.5 20:15:21 10° WNW 20:18:51 40° SW 20:18:51 40° SW
Cosmos 1328 4.1 20:16:32 10° NNW 20:20:25 65° W 20:20:25 65° W
SL-16 R/B 4.0 20:17:12 10° WSW 20:22:12 31° NW 20:27:14 10° NNE
Cosmos 921 Rocket 4.2 20:18:30 10° N 20:21:21 31° NNE 20:21:21 31° NNE
STARLINK-1230 4.4 20:18:37 10° W 20:22:34 47° N 20:22:57 45° N
Cosmos 2228 3.1 20:22:39 66° WSW 20:22:59 70° W 20:27:19 10° N
Cosmos 967 Rocket 4.4 20:17:58 10° SSW 20:24:24 82° SE 20:30:56 10° NE
Cosmos 1953 4.2 20:23:39 10° SW 20:27:06 28° WNW 20:30:35 10° N
STARLINK-1243 4.4 20:23:28 10° W 20:27:25 46° N 20:27:36 45° N
Cosmos 962 Rocket 4.3 20:24:33 10° N 20:30:47 77° E 20:31:43 64° SE
STARLINK-1236 4.5 20:28:17 10° W 20:32:12 45° N 20:32:12 45° N
Nadezhda 1 Rocket 4.2 20:29:47 24° SSW 20:33:52 73° W 20:40:17 10° N
SL-8 Rocket 4.0 20:30:29 10° N 20:36:43 59° ENE 20:37:01 59° E
ISS -1.3 20:34:26 10° WNW 20:35:39 19° W 20:35:39 19° W
Cosmos 2058 Rocket 3.7 20:42:37 54° N 20:42:37 54° N 20:46:11 10° N
SPOT 5 3.4 20:44:25 47° N 20:44:25 47° N 20:47:38 10° N
Cosmos 1603 4.1 20:38:02 10° SW 20:43:37 60° WNW 20:49:12 10° NNE
Cosmos 2366 rocket 4.2 20:38:28 10° N 20:44:18 53° ENE 20:44:18 53° ENE
CZ-4C R/B 4.5 20:43:00 10° NW 20:48:02 24° NNE 20:53:35 11° ENE
IGS 5A 4.4 20:49:02 46° NW 20:49:02 46° NW 20:52:18 10° NNW
ERS-1 Rocket 3.0 20:48:38 76° NNW 20:48:38 76° NNW 20:53:17 10° NNW
CZ-2C R/B 4.1 20:44:18 10° N 20:48:57 34° WNW 20:53:33 10° SW
Landsat 7 4.2 20:49:40 58° W 20:49:40 58° W 20:54:13 10° NNW
Cosmos 1959 Rocket 4.5 20:53:41 10° N 20:59:53 71° ENE 20:59:53 71° ENE
Cosmos 1656 Rocket 4.2 20:56:27 10° NW 21:01:54 49° WSW 21:02:03 49° WSW
Aureole 1 Rocket 4.3 21:01:51 38° SSW 21:05:12 84° WNW 21:11:44 10° NNE
COSMOS 2455 3.0 21:09:41 10° NNW 21:15:09 69° N 21:15:09 69° N
Cosmos 2369 Rocket 4.3 21:20:10 10° WNW 21:23:41 17° W 21:25:04 16° WSW
NOSS 3-4 (A) 4.0 21:23:16 10° NW 21:30:09 63° WSW 21:30:09 63° WSW
NOSS 3-4 (C) 3.9 21:23:22 10° NW 21:30:14 63° WSW 21:30:14 63° WSW
Terra 3.1 21:32:46 37° NW 21:32:46 37° NW 21:35:51 10° NNW
ATLAS CENTAUR R/B 4.2 21:30:47 10° N 21:31:52 12° NNE 21:31:52 12° NNE
USA 234 4.1 21:51:17 10° ENE 21:57:27 46° NNW 22:03:37 10° W
ATLAS 2AS CENTAUR R/B 3.7 21:55:43 10° NW 22:01:48 37° WSW 22:01:48 37° WSW
Cosmos 1697 Rocket 4.0 22:06:28 10° NNW 22:10:12 35° N 22:10:12 35° N
Mayak 1.5 22:14:34 10° N 22:15:32 16° N 22:15:32 16° N
Cosmos 1980 Rocket 3.7 22:32:01 10° NNW 22:35:28 31° N 22:35:28 31° N
CZ-4C R/B 3.6 22:31:44 10° NW 22:38:18 46° NE 22:38:44 45° NE
Cosmos 2082 Rocket 4.3 23:00:52 19° NE 23:00:52 19° NE 23:02:27 10° NE
ATLAS 5 CENTAUR R/B 4.2 23:20:05 19° NNE 23:20:05 19° NNE 23:22:02 10° NNE
Cosmos 1833 Rocket 4.3 23:28:31 30° NNE 23:28:31 30° NNE 23:31:15 10° NNE
USA 234 4.2 23:33:38 10° ENE 23:39:45 44° N 23:45:52 10° WNW
SL-16 R/B 3.7 23:52:44 37° NE 23:52:44 37° NE 23:58:05 10° N
